This demonstration page uses our WeatherBlox Daily Observations layout. Learn more.

Left ArrowRight Arrow

34.74481, -87.66753

Hourly Observations for October 5, 2022

Temp ( °F °C ) Dew Point ( °F °C ) Humidity (%) Winds ( mph kmh ) Pressure ( in mb ) Visibility ( mi km ) Precip ( " mm )
12:53 am 00:53 Clear 49 9.4 45 7.2 86 86 Calm 30.10 1019 10 16 0.00 0.00
1:53 am 01:53 Clear 47 8.3 44 6.7 90 90 Calm 30.10 1019 10 16 0.00 0.00
2:53 am 02:53 Clear 46 7.8 43 6.1 89 89 Calm 30.09 1019 10 16 0.00 0.00
3:53 am 03:53 Clear 45 7.2 42 5.6 90 90 Calm 30.09 1019 10 16 0.00 0.00
4:53 am 04:53 Clear with Mist and Fog 44 6.7 42 5.6 93 93 Calm 30.10 1019 3 5 0.00 0.00
5:53 am 05:53 Clear 43 6.1 41 5 93 93 Calm 30.11 1020 9 14 0.00 0.00
6:53 am 06:53 Sunny 43 6.1 40 4.4 89 89 Calm 30.13 1020 9 14 0.00 0.00
7:53 am 07:53 Sunny 49 9.4 46 7.8 90 90 Calm 30.14 1021 10 16 0.00 0.00
8:53 am 08:53 Sunny 56 13.3 49 9.4 77 77 Calm 30.14 1021 10 16 0.00 0.00
9:53 am 09:53 Sunny 64 17.8 48 8.9 56 56 ESE 3 6 30.14 1021 10 16 0.00 0.00
10:53 am 10:53 Sunny 70 21.1 43 6.1 38 38 Calm 30.14 1021 10 16 0.00 0.00
11:53 am 11:53 Sunny 75 23.9 45 7.2 34 34 Calm 30.13 1020 10 16 0.00 0.00
12:53 pm 12:53 Sunny 78 25.6 40 4.4 25 25 VRB 7 11 30.11 1020 10 16 0.00 0.00
1:53 pm 13:53 Sunny 79 26.1 41 5 26 26 undefined N/A 30.08 1019 10 16 0.00 0.00
2:53 pm 14:53 Sunny 80 26.7 42 5.6 26 26 ENE 5 7 30.06 1018 10 16 0.00 0.00
3:53 pm 15:53 Sunny 80 26.7 42 5.6 26 26 VRB 5 7 30.05 1018 10 16 0.00 0.00
4:53 pm 16:53 Sunny 80 26.7 42 5.6 26 26 E 6 9 30.05 1018 10 16 0.00 0.00
5:53 pm 17:53 Sunny 77 25 44 6.7 31 31 E 3 6 30.05 1018 10 16 0.00 0.00
6:53 pm 18:53 Clear 66 18.9 49 9.4 54 54 Calm 30.06 1018 10 16 0.00 0.00
7:53 pm 19:53 Clear 60 15.6 49 9.4 67 67 Calm 30.07 1018 10 16 0.00 0.00
8:53 pm 20:53 Clear 59 15 50 10 72 72 Calm 30.08 1019 10 16 0.00 0.00
9:53 pm 21:53 Clear 56 13.3 49 9.4 77 77 Calm 30.09 1019 10 16 0.00 0.00
10:53 pm 22:53 Clear 53 11.7 48 8.9 83 83 Calm 30.09 1019 10 16 0.00 0.00
11:53 pm 23:53 Clear 52 11.1 47 8.3 83 83 Calm 30.09 1019 10 16 0.00 0.00

Powered by AerisWeather